FW8143 Weather Reports


time (UTC)temp
C
wind
direction
speed
KPH
gust
KPH
rain 1hr
cm
rain 24hr
cm
rain mn
cm
humidity
%
barometer
mb
20260508014514 17 199 11.3 20.9 0.00 0.00 0.00 13 1022.9
20260508014011 17 197 9.7 19.3 0.00 0.00 0.00 13 1022.9
20260508013510 17 197 9.7 17.7 0.00 0.00 0.00 13 1022.9
20260508013004 18 202 9.7 19.3 0.00 0.00 0.00 13 1022.8
20260508012458 18 196 9.7 24.1 0.00 0.00 0.00 13 1022.8
20260508012218 18 224 9.7 22.5 0.00 0.00 0.00 13 1022.8
20260508011705 18 213 11.3 22.5 0.00 0.00 0.00 12 1022.6
20260508010940 18 246 11.3 19.3 0.00 0.00 0.00 12 1022.6
20260508010434 18 199 9.7 24.1 0.00 0.00 0.00 12 1022.6
20260508010144 19 266 8.0 24.1 0.00 0.00 0.00 12 1022.6
20260508005421 19 240 9.7 19.3 0.00 0.00 0.00 12 1022.6
20260508004915 19 227 9.7 19.3 0.00 0.00 0.00 12 1022.6
20260508004409 19 239 8.0 16.1 0.00 0.00 0.00 13 1022.6
20260508003904 19 275 6.4 16.1 0.00 0.00 0.00 13 1022.6
20260508003357 19 259 6.4 16.1 0.00 0.00 0.00 12 1022.8
20260508002851 20 236 6.4 17.7 0.00 0.00 0.00 13 1022.6
20260508002346 19 254 8.0 19.3 0.00 0.00 0.00 13 1022.8
20260508001840 20 229 11.3 20.9 0.00 0.00 0.00 13 1022.9
20260508001334 20 275 12.9 22.5 0.00 0.00 0.00 13 1022.8
20260508001319 20 350 14.5 22.5 0.00 0.00 0.00 14 1022.8
20260508000321 20 321 14.5 22.5 0.00 0.00 0.00 14 1022.8
20260508000038 20 240 12.9 20.9 0.00 0.00 0.00 15 1022.6
20260507235310 20 272 11.3 20.9 0.00 0.00 0.00 15 1022.6
20260507234804 20 251 11.3 22.5 0.00 0.00 0.00 15 1022.8
20260507234515 20 244 11.3 24.1 0.00 0.00 0.00 16 1022.8
20260507233752 20 273 9.7 24.1 0.00 0.00 0.00 16 1022.8
20260507233246 20 248 8.0 19.3 0.00 0.00 0.00 17 1022.8
20260507232740 20 295 9.7 19.3 0.00 0.00 0.00 17 1023.0
20260507232234 20 192 11.3 22.5 0.00 0.00 0.00 18 1022.9
20260507232217 20 215 12.9 25.7 0.00 0.00 0.00 17 1022.9
20260507231222 20 252 12.9 25.7 0.00 0.00 0.00 17 1022.9
20260507230717 20 236 11.3 22.5 0.00 0.00 0.00 17 1023.0
20260507230210 21 277 11.3 27.4 0.00 0.00 0.00 17 1022.9
20260507225704 21 259 9.7 27.4 0.00 0.00 0.00 18 1022.9
20260507225158 21 71 8.0 24.1 0.00 0.00 0.00 17 1022.9
20260507224653 21 323 8.0 24.1 0.00 0.00 0.00 18 1023.0
20260507224146 21 279 4.8 20.9 0.00 0.00 0.00 16 1023.0
20260507223856 21 261 6.4 20.9 0.00 0.00 0.00 16 1023.0
20260507223134 21 298 6.4 20.9 0.00 0.00 0.00 16 1023.2
20260507222627 21 53 6.4 16.1 0.00 0.00 0.00 16 1023.2
20260507222122 21 0 6.4 19.3 0.00 0.00 0.00 15 1023.3
20260507221835 21 250 6.4 19.3 0.00 0.00 0.00 15 1023.3
20260507221110 21 313 8.0 27.4 0.00 0.00 0.00 16 1023.3
20260507220603 21 329 8.0 27.4 0.00 0.00 0.00 16 1023.4
20260507220058 21 150 8.0 22.5 0.00 0.00 0.00 15 1023.4
20260507215820 21 42 8.0 17.7 0.00 0.00 0.00 15 1023.5
20260507215046 21 297 9.7 25.7 0.00 0.00 0.00 14 1023.7
20260507214540 21 349 12.9 25.7 0.00 0.00 0.00 15 1023.8
20260507214038 21 319 14.5 29.0 0.00 0.00 0.00 15 1023.8
20260507213538 20 19 12.9 29.0 0.00 0.00 0.00 14 1023.8
20260507213038 20 302 9.7 24.1 0.00 0.00 0.00 13 1023.9
20260507212537 20 328 8.0 19.3 0.00 0.00 0.00 14 1024.0
20260507212038 20 309 8.0 19.3 0.00 0.00 0.00 13 1024.2
20260507211800 20 320 8.0 20.9 0.00 0.00 0.00 13 1024.2
20260507211038 20 257 9.7 22.5 0.00 0.00 0.00 12 1024.2
20260507210754 20 304 11.3 22.5 0.00 0.00 0.00 12 1024.3
20260507210038 20 327 11.3 20.9 0.00 0.00 0.00 12 1024.3
20260507205537 20 287 11.3 22.5 0.00 0.00 0.00 12 1024.3
20260507205038 20 344 9.7 22.5 0.00 0.00 0.00 12 1024.2
20260507204537 20 275 9.7 20.9 0.00 0.00 0.00 11 1024.4
20260507204038 20 11 9.7 19.3 0.00 0.00 0.00 12 1024.5
20260507203538 20 230 11.3 22.5 0.00 0.00 0.00 11 1024.5
20260507203038 20 34 9.7 22.5 0.00 0.00 0.00 10 1024.7
20260507202537 20 20 9.7 24.1 0.00 0.00 0.00 11 1024.8
20260507202031 20 15 9.7 24.1 0.00 0.00 0.00 11 1024.8
20260507201525 20 273 11.3 33.8 0.00 0.00 0.00 12 1024.8
20260507201021 20 284 11.3 33.8 0.00 0.00 0.00 10 1024.8
20260507200522 19 9 9.7 27.4 0.00 0.00 0.00 11 1024.8
20260507200023 19 311 9.7 22.5 0.00 0.00 0.00 11 1024.9
20260507195522 19 217 11.3 20.9 0.00 0.00 0.00 10 1025.0
20260507195022 19 184 9.7 22.5 0.00 0.00 0.00 13 1025.0
20260507194521 18 290 11.3 22.5 0.00 0.00 0.00 12 1025.0
20260507194244 18 244 11.3 24.1 0.00 0.00 0.00 13 1025.2
20260507193522 18 44 8.0 24.1 0.00 0.00 0.00 14 1025.0
20260507193022 18 252 9.7 20.9 0.00 0.00 0.00 14 1025.2
20260507192522 18 14 12.9 29.0 0.00 0.00 0.00 14 1025.2
20260507192019 18 9 14.5 29.0 0.00 0.00 0.00 16 1025.2
20260507191520 17 348 11.3 24.1 0.00 0.00 0.00 15 1025.2
20260507191018 17 273 11.3 20.9 0.00 0.00 0.00 17 1025.2
20260507190518 17 355 12.9 27.4 0.00 0.00 0.00 19 1025.3
20260507190458 17 332 12.9 27.4 0.00 0.00 0.00 20 1025.4
20260507185517 17 18 12.9 27.4 0.00 0.00 0.00 20 1025.4
20260507185018 17 288 14.5 27.4 0.00 0.00 0.00 20 1025.4
20260507184740 16 15 16.1 32.2 0.00 0.00 0.00 21 1025.5
20260507184625 16 348 16.1 32.2 0.00 0.00 0.00 21 1025.5
20260507183518 16 336 12.9 25.7 0.00 0.00 0.00 22 1025.7
20260507183018 16 306 12.9 29.0 0.00 0.00 0.00 23 1025.5
20260507183001 15 5 14.5 30.6 0.00 0.00 0.00 25 1025.7
20260507182018 15 344 16.1 30.6 0.00 0.00 0.00 25 1025.7
20260507181517 15 311 14.5 29.0 0.00 0.00 0.00 26 1025.8
20260507181018 15 5 16.1 29.0 0.00 0.00 0.00 26 1025.8
20260507180738 15 296 17.7 32.2 0.00 0.00 0.00 27 1025.8
20260507180016 14 351 17.7 32.2 0.00 0.00 0.00 28 1025.9
20260507175514 14 10 17.7 32.2 0.00 0.00 0.00 29 1025.9
20260507175009 13 9 17.7 33.8 0.00 0.00 0.00 30 1026.0
20260507174503 13 15 17.7 33.8 0.00 0.00 0.00 33 1026.0
20260507173956 13 298 17.7 30.6 0.00 0.00 0.00 33 1026.2
20260507173451 13 22 17.7 35.4 0.00 0.00 0.00 36 1026.3
20260507172945 12 319 17.7 35.4 0.00 0.00 0.00 37 1026.3
20260507172438 12 336 17.7 33.8 0.00 0.00 0.00 39 1026.3
20260507171933 12 13 16.1 33.8 0.00 0.00 0.00 41 1026.3
20260507171434 11 321 16.1 32.2 0.00 0.00 0.00 43 1026.3
20260507171204 11 30 16.1 32.2 0.00 0.00 0.00 44 1026.4
20260507170434 11 34 17.7 33.8 0.00 0.00 0.00 44 1026.4
20260507170157 11 5 17.7 33.8 0.00 0.00 0.00 46 1026.5
20260507165916 10 10 17.7 33.8 0.00 0.00 0.00 47 1026.4
20260507164933 10 294 17.7 32.2 0.00 0.00 0.00 48 1026.5
20260507164659 10 10 17.7 33.8 0.00 0.00 0.00 49 1026.5
20260507163934 10 44 17.7 37.0 0.00 0.00 0.00 51 1026.5
20260507163657 9 355 14.5 37.0 0.00 0.00 0.00 53 1026.5
20260507163151 9 321 16.1 32.2 0.00 0.00 0.00 54 1026.5
20260507162656 8 355 20.9 33.8 0.00 0.00 0.00 56 1026.4
20260507161934 8 5 20.9 33.8 0.00 0.00 0.00 57 1026.5
20260507161433 8 32 19.3 33.8 0.00 0.00 0.00 59 1026.5
20260507160933 8 10 19.3 33.8 0.00 0.00 0.00 60 1026.7
20260507160434 7 0 17.7 33.8 0.00 0.00 0.00 60 1026.7
20260507155933 7 23 17.7 32.2 0.00 0.00 0.00 62 1026.7
20260507155427 7 355 17.7 32.2 0.00 0.00 0.00 62 1026.8
20260507154921 7 0 16.1 29.0 0.00 0.00 0.00 63 1026.9
20260507154414 6 18 14.5 29.0 0.00 0.00 0.00 65 1026.8
20260507154129 6 317 12.9 24.1 0.00 0.00 0.00 65 1026.9
20260507153402 6 355 12.9 24.1 0.00 0.00 0.00 65 1026.9
20260507152856 6 332 11.3 22.5 0.00 0.00 0.00 65 1027.1
20260507152350 5 5 11.3 22.5 0.00 0.00 0.00 66 1027.1
20260507151845 5 331 11.3 20.9 0.00 0.00 0.00 67 1027.2
20260507151338 5 309 6.4 20.9 0.00 0.00 0.00 69 1027.1
20260507151057 4 307 4.8 14.5 0.00 0.00 0.00 70 1027.1
20260507150327 3 323 4.8 14.5 0.00 0.00 0.00 71 1027.1
20260507145821 3 295 4.8 12.9 0.00 0.00 0.00 73 1027.2
20260507145315 3 305 6.4 12.9 0.00 0.00 0.00 73 1027.2
20260507144809 3 303 4.8 12.9 0.00 0.00 0.00 75 1027.3
20260507144302 2 298 4.8 11.3 0.00 0.00 0.00 77 1027.3
20260507143757 2 335 6.4 14.5 0.00 0.00 0.00 77 1027.3
20260507143251 2 0 8.0 16.1 0.00 0.00 0.00 78 1027.3
20260507142745 1 24 9.7 16.1 0.00 0.00 0.00 79 1027.4
20260507142239 1 21 6.4 16.1 0.00 0.00 0.00 80 1027.4
20260507141733 1 320 4.8 16.1 0.00 0.00 0.00 81 1027.6
20260507141451 1 329 6.4 17.7 0.00 0.00 0.00 83 1027.7
20260507140720 1 0 6.4 17.7 0.00 0.00 0.00 85 1027.8
20260507140215 1 19 6.4 14.5 0.00 0.00 0.00 86 1027.8
20260507135709 0 351 4.8 11.3 0.00 0.00 0.00 86 1027.8
20260507135203 0 324 4.8 12.9 0.00 0.00 0.00 87 1027.8
20260507134657 0 18 3.2 12.9 0.00 0.00 0.00 87 1027.8
20260507134151 0 53 3.2 8.0 0.00 0.00 0.00 87 1027.7
20260507133644 0 50 1.6 6.4 0.00 0.00 0.00 87 1027.7
20260507133139 0 64 1.6 6.4 0.00 0.00 0.00 87 1027.7
20260507132632 0 42 1.6 4.8 0.00 0.00 0.00 87 1027.6
20260507132127 0 38 0.0 4.8 0.00 0.00 0.00 86 1027.6
20260507131621 0 42 0.0 4.8 0.00 0.00 0.00 86 1027.7
20260507131115 0 42 1.6 6.4 0.00 0.00 0.00 86 1027.7
20260507130610 0 42 3.2 6.4 0.00 0.00 0.00 85 1027.7
20260507130104 0 81 4.8 9.7 0.00 0.00 0.00 85 1027.8
20260507125558 0 87 4.8 9.7 0.00 0.00 0.00 85 1027.7
20260507125052 0 101 6.4 11.3 0.00 0.00 0.00 84 1027.7
20260507124546 0 89 6.4 11.3 0.00 0.00 0.00 84 1027.6
20260507124040 0 87 6.4 9.7 0.00 0.00 0.00 83 1027.6
20260507123534 0 94 6.4 11.3 0.00 0.00 0.00 83 1027.6
20260507123028 0 77 6.4 11.3 0.00 0.00 0.00 83 1027.7
20260507122529 0 86 6.4 11.3 0.00 0.00 0.00 83 1027.7
20260507122029 0 80 4.8 11.3 0.00 0.00 0.00 82 1027.7
20260507121747 0 73 3.2 8.0 0.00 0.00 0.00 80 1027.7
20260507121029 0 52 1.6 8.0 0.00 0.00 0.00 80 1027.8
20260507120527 0 66 1.6 4.8 0.00 0.00 0.00 80 1027.8
20260507120511 0 82 1.6 4.8 0.00 0.00 0.00 80 1027.7
20260507115525 0 51 0.0 3.2 0.00 0.00 0.00 80 1027.7
20260507115517 0 43 1.6 9.7 0.00 0.00 0.00 80 1027.7
20260507114523 0 43 3.2 9.7 0.00 0.00 0.00 80 1027.7
20260507114021 0 77 4.8 9.7 0.00 0.00 0.00 80 1027.7
20260507113519 0 94 6.4 9.7 0.00 0.00 0.00 80 1027.6
20260507113019 0 90 6.4 9.7 0.00 0.00 0.00 79 1027.6
20260507112519 0 94 6.4 11.3 0.00 0.00 0.00 80 1027.6
20260507112018 0 96 6.4 11.3 0.00 0.00 0.00 79 1027.6
20260507111519 0 97 6.4 11.3 0.00 0.00 0.00 79 1027.6
20260507111019 0 89 6.4 11.3 0.00 0.00 0.00 78 1027.4
20260507110519 0 87 6.4 12.9 0.00 0.00 0.00 78 1027.6
20260507110012 0 95 6.4 12.9 0.00 0.00 0.00 78 1027.4
20260507105509 0 100 6.4 12.9 0.00 0.00 0.00 78 1027.6
20260507105009 0 102 6.4 12.9 0.00 0.00 0.00 79 1027.6
20260507104508 0 103 6.4 12.9 0.00 0.00 0.00 79 1027.6
20260507104009 0 100 6.4 11.3 0.00 0.00 0.00 79 1027.6
20260507103508 0 99 6.4 11.3 0.00 0.00 0.00 79 1027.6
20260507103008 0 100 4.8 9.7 0.00 0.00 0.00 79 1027.7
20260507102509 0 93 4.8 9.7 0.00 0.00 0.00 79 1027.7
20260507102009 0 94 4.8 6.4 0.00 0.00 0.00 79 1027.6
20260507101508 0 78 4.8 9.7 0.00 0.00 0.00 79 1027.6
20260507101234 0 80 6.4 9.7 0.00 0.00 0.00 78 1027.6
20260507100507 0 76 6.4 9.7 0.00 0.00 0.00 78 1027.7
20260507100007 0 98 6.4 9.7 0.00 0.00 0.00 78 1027.7
20260507095507 0 92 6.4 11.3 0.00 0.00 0.00 77 1027.7
20260507095003 0 98 6.4 11.3 0.00 0.00 0.00 77 1027.8
20260507094503 0 90 3.2 9.7 0.00 0.00 0.00 76 1027.8
20260507094003 0 100 1.6 6.4 0.00 0.00 0.00 76 1027.8
20260507093721 0 94 1.6 6.4 0.00 0.00 0.00 74 1027.8
20260507093002 0 103 1.6 4.8 0.00 0.00 0.00 74 1027.7
20260507092504 0 119 1.6 4.8 0.00 0.00 0.00 74 1027.7
20260507092003 0 99 1.6 4.8 0.00 0.00 0.00 73 1027.8
20260507091502 1 114 1.6 4.8 0.00 0.00 0.00 73 1027.7
20260507091222 1 140 0.0 4.8 0.00 0.00 0.00 72 1027.7
20260507090504 1 130 1.6 8.0 0.00 0.00 0.00 71 1027.8
20260507090002 1 125 1.6 8.0 0.00 0.03 0.00 71 1027.8
20260507085502 1 109 1.6 4.8 0.00 0.03 0.00 70 1027.7
20260507085003 1 111 1.6 4.8 0.00 0.03 0.00 69 1027.6
20260507084502 1 132 3.2 11.3 0.00 0.03 0.00 69 1027.4
20260507084002 1 130 3.2 19.3 0.00 0.03 0.00 68 1027.6
20260507083502 1 138 3.2 19.3 0.00 0.03 0.00 67 1027.4
20260507083003 1 124 3.2 9.7 0.00 0.03 0.00 66 1027.4
20260507082502 1 123 4.8 6.4 0.00 0.03 0.00 65 1027.4
20260507081956 1 123 4.8 9.7 0.00 0.03 0.00 64 1027.4
20260507081716 1 101 4.8 11.3 0.00 0.03 0.00 63 1027.4
20260507080944 1 98 3.2 11.3 0.00 0.03 0.00 63 1027.6
20260507080438 2 96 1.6 8.0 0.00 0.03 0.00 63 1027.4
20260507075932 2 134 1.6 8.0 0.00 0.03 0.00 63 1027.4
20260507075426 2 146 1.6 8.0 0.00 0.03 0.00 61 1027.4
20260507074920 2 117 1.6 4.8 0.00 0.03 0.00 59 1027.4
20260507074414 2 96 1.6 6.4 0.00 0.03 0.00 59 1027.4
20260507073908 2 93 3.2 12.9 0.00 0.03 0.00 59 1027.3
20260507073402 2 89 4.8 12.9 0.00 0.03 0.00 58 1027.3
20260507073120 2 119 1.6 11.3 0.00 0.03 0.00 58 1027.2
20260507072350 2 93 3.2 9.7 0.00 0.03 0.00 56 1027.2
20260507071845 2 88 4.8 9.7 0.00 0.03 0.00 55 1027.1
20260507071340 2 82 4.8 11.3 0.00 0.03 0.00 55 1027.1
20260507070833 2 93 4.8 11.3 0.00 0.03 0.00 55 1027.1
20260507070327 2 83 3.2 8.0 0.00 0.03 0.00 55 1027.1
20260507065821 2 81 3.2 6.4 0.00 0.03 0.00 55 1027.1
20260507065315 3 81 3.2 6.4 0.00 0.03 0.00 55 1027.1
20260507064808 3 77 3.2 9.7 0.00 0.03 0.00 56 1027.1
20260507064526 3 69 4.8 11.3 0.00 0.03 0.00 57 1026.9
20260507063757 3 91 8.0 12.9 0.00 0.03 0.00 57 1026.9
20260507063251 3 88 8.0 12.9 0.00 0.03 0.00 56 1026.8
20260507062746 3 93 8.0 12.9 0.00 0.03 0.00 56 1026.8
20260507062239 3 96 9.7 12.9 0.00 0.03 0.00 56 1026.7
20260507061733 3 95 9.7 12.9 0.00 0.03 0.00 57 1026.7
20260507061227 3 96 8.0 12.9 0.00 0.03 0.00 58 1026.8
20260507060722 3 94 8.0 12.9 0.00 0.03 0.00 59 1026.7
20260507060216 3 110 9.7 12.9 0.00 0.03 0.00 59 1026.7
20260507055714 3 90 8.0 12.9 0.00 0.03 0.03 60 1026.7
20260507055435 3 107 9.7 14.5 0.00 0.03 0.03 60 1026.5
20260507054715 3 103 8.0 14.5 0.00 0.03 0.03 60 1026.5
20260507054215 3 112 8.0 14.5 0.00 0.03 0.03 59 1026.4
20260507053939 3 117 9.7 14.5 0.00 0.03 0.03 59 1026.3
20260507053214 4 107 8.0 16.1 0.00 0.03 0.03 58 1026.3
20260507052715 4 98 8.0 16.1 0.00 0.03 0.03 58 1026.3
20260507052212 4 84 8.0 12.9 0.00 0.03 0.03 56 1026.3
20260507051711 4 92 6.4 12.9 0.00 0.03 0.03 56 1026.3
20260507051211 4 89 6.4 9.7 0.00 0.03 0.03 57 1026.3
20260507050712 4 81 6.4 9.7 0.00 0.03 0.03 56 1026.3
20260507050206 5 61 6.4 11.3 0.00 0.03 0.03 55 1026.3
20260507045929 5 55 6.4 11.3 0.00 0.03 0.03 56 1026.3
20260507045427 5 63 6.4 11.3 0.00 0.05 0.03 57 1026.2
20260507044707 5 83 8.0 11.3 0.00 0.05 0.03 57 1026.2
20260507044207 5 98 8.0 11.3 0.00 0.08 0.03 57 1026.0
20260507043708 5 91 6.4 12.9 0.00 0.08 0.03 56 1026.0
20260507043208 5 83 6.4 12.9 0.00 0.08 0.03 56 1025.9
20260507042707 5 93 6.4 11.3 0.00 0.08 0.03 56 1025.9
20260507042647 5 91 6.4 11.3 0.00 0.08 0.03 55 1025.9
20260507041707 5 87 4.8 9.7 0.00 0.08 0.03 54 1025.8
20260507041428 5 76 4.8 8.0 0.00 0.10 0.03 54 1025.7
20260507040707 5 63 4.8 6.4 0.00 0.10 0.03 53 1025.7
20260507040206 5 34 4.8 8.0 0.00 0.10 0.03 53 1025.5
20260507035708 6 15 6.4 11.3 0.00 0.10 0.03 53 1025.5
20260507035207 6 27 6.4 11.3 0.00 0.10 0.03 53 1025.5
20260507034706 6 17 3.2 6.4 0.00 0.10 0.03 52 1025.4
20260507034207 6 349 3.2 8.0 0.00 0.10 0.03 53 1025.3
20260507033707 6 341 4.8 9.7 0.00 0.10 0.03 52 1025.4
20260507033159 6 9 1.6 8.0 0.00 0.10 0.03 52 1025.3
20260507032654 6 5 0.0 4.8 0.00 0.10 0.03 52 1025.3
20260507032147 7 277 0.0 3.2 0.00 0.10 0.03 50 1025.0
20260507031642 7 281 0.0 4.8 0.00 0.10 0.03 50 1024.9
20260507031137 7 254 1.6 4.8 0.00 0.10 0.03 50 1024.9
20260507030630 7 246 3.2 4.8 0.00 0.10 0.03 48 1024.7
20260507030124 7 250 3.2 8.0 0.00 0.13 0.03 48 1024.7
20260507025842 7 251 4.8 11.3 0.00 0.15 0.03 47 1024.5
20260507025111 7 236 4.8 11.3 0.00 0.18 0.03 47 1024.4
20260507024606 7 277 4.8 12.9 0.00 0.20 0.03 47 1024.4
20260507024100 7 244 8.0 16.1 0.00 0.20 0.03 47 1024.3
20260507023553 8 252 8.0 17.7 0.00 0.20 0.03 46 1024.2
20260507023047 8 254 8.0 17.7 0.00 0.23 0.03 45 1024.2
20260507022542 8 239 9.7 20.9 0.00 0.23 0.03 45 1023.9
20260507022035 8 250 11.3 24.1 0.00 0.23 0.03 45 1023.8
20260507021752 8 251 11.3 24.1 0.00 0.23 0.03 44 1023.7
20260507021023 8 266 12.9 22.5 0.00 0.23 0.03 43 1023.8
20260507020745 9 268 12.9 24.1 0.00 0.23 0.03 43 1023.5
20260507020233 9 267 12.9 25.7 0.00 0.23 0.03 42 1023.5
20260507015506 9 261 12.9 25.7 0.00 0.23 0.03 42 1023.4
20260507014959 10 257 12.9 25.7 0.00 0.23 0.03 42 1023.4